Location: Montr�al
(45.5000°N, 73.5830°W)
Time: 03:32:11
(UTC-05:00)

ISS - All Passes

Search period start: 31 January 2015 00:00
Search period end: 10 February 2015 00:00
Orbit: 400 x 408 km, 51.6° (Epoch: 30 January)

Date Brightness Start Highest point End Pass type
(mag) Time Alt. Az. Time Alt. Az. Time Alt. Az.
31 Jan - 00:29:58 10° WNW 00:32:51 27° N 00:35:43 10° ENE night (unlit)
31 Jan - 02:06:35 10° NW 02:09:48 49° NNE 02:13:02 10° E night (unlit)
31 Jan - 03:43:14 10° WNW 03:46:13 31° SW 03:49:10 10° SSE night (unlit)
31 Jan - 20:24:30 10° SSW 20:27:09 23° SE 20:29:52 10° E night (unlit)
31 Jan - 22:00:12 10° WSW 22:03:26 60° NNW 22:06:43 10° ENE night (unlit)
31 Jan - 23:37:28 10° WNW 23:40:21 27° N 23:43:15 10° ENE night (unlit)
01 Feb - 01:14:18 10° NW 01:17:23 36° NNE 01:20:30 10° E night (unlit)
01 Feb - 02:50:45 10° WNW 02:54:00 54° SW 02:57:14 10° SE night (unlit)
01 Feb - 19:33:22 10° SSE 19:35:02 13° SE 19:36:46 10° ESE night (unlit)
01 Feb - 21:07:49 10° WSW 21:11:05 86° SSE 21:14:24 10° ENE night (unlit)
01 Feb - 22:44:52 10° WNW 22:47:51 30° N 22:50:50 10° NE night (unlit)
02 Feb - 00:21:57 10° NW 00:24:54 30° N 00:27:53 10° ENE night (unlit)
02 Feb - 01:58:22 10° WNW 02:01:41 88° NNE 02:05:00 10° ESE night (unlit)
02 Feb - 03:35:48 10° W 03:37:48 15° SW 03:39:42 10° S night (unlit)
02 Feb - 20:15:36 10° SW 20:18:46 50° SE 20:21:58 10° ENE night (unlit)
02 Feb - 21:52:14 10° W 21:55:20 37° NNW 21:58:27 10° NE night (unlit)
02 Feb - 23:29:29 10° WNW 23:32:22 27° N 23:35:15 10° ENE night (unlit)
03 Feb - 01:06:02 10° WNW 01:09:17 56° NNE 01:12:33 10° ESE night (unlit)
03 Feb - 02:42:48 10° W 02:45:36 26° SW 02:48:23 10° SSE night (unlit)
03 Feb - 19:23:39 10° SSW 19:26:29 28° SE 19:29:22 10° ENE visible
03 Feb - 20:59:37 10° W 21:02:50 52° NNW 21:06:04 10° NE night (unlit)
03 Feb - 22:36:55 10° WNW 22:39:46 27° N 22:42:39 10° ENE night (unlit)
04 Feb - 00:13:40 10° NW 00:16:48 39° NNE 00:19:56 10° E night (unlit)
04 Feb - 01:50:09 10° WNW 01:53:19 45° SW 01:56:28 10° SE night (unlit)
04 Feb - 18:32:08 10° S 18:34:14 16° SE 18:36:24 10° E visible
04 Feb - 20:07:06 10° WSW 20:10:22 80° NNW 20:13:40 10° ENE visible
04 Feb - 21:44:14 10° WNW 21:47:10 29° N 21:50:07 10° NE night (unlit)
04 Feb - 23:21:14 10° NW 23:24:13 31° NNE 23:27:14 10° ENE night (unlit)
05 Feb - 00:57:39 10° WNW 01:00:57 79° SSW 01:04:14 10° SE night (unlit)
05 Feb - 02:35:32 10° WSW 02:36:58 12° SW 02:38:19 10° SSW night (unlit)
05 Feb - 19:14:42 10° SW 19:17:56 60° SSE 19:21:11 10° ENE visible
05 Feb - 20:51:30 10° W 20:54:33 34° NNW 20:57:37 10° NE night (unlit)
05 Feb - 22:28:42 10° NW 22:31:36 27° N 22:34:30 10° ENE night (unlit)
06 Feb - 00:05:11 10° WNW 00:08:28 65° NNE 00:11:44 10° ESE night (unlit)
06 Feb - 01:42:06 10° W 01:44:42 21° SW 01:47:15 10° S night (unlit)
06 Feb - 18:22:33 10° SSW 18:25:32 34° SE 18:28:33 10° ENE visible
06 Feb - 19:58:46 10° W 20:01:57 46° NNW 20:05:08 10° NE visible
06 Feb - 21:36:04 10° WNW 21:38:55 26° N 21:41:47 10° ENE night (unlit)
06 Feb - 23:12:43 10° NW 23:15:54 44° NNE 23:19:04 10° E night (unlit)
07 Feb - 00:49:16 10° WNW 00:52:20 37° SW 00:55:25 10° SSE night (unlit)
07 Feb - 17:30:46 10° S 17:33:10 19° SE 17:35:38 10° E daylight
07 Feb - 19:06:07 10° WSW 19:09:21 69° NNW 19:12:38 10° ENE visible
07 Feb - 20:43:19 10° WNW 20:46:12 28° N 20:49:07 10° NE visible
07 Feb - 22:20:13 10° NW 22:23:15 33° NNE 22:26:17 10° E night (unlit)
07 Feb - 23:56:38 10° WNW 23:59:54 66° SSW 00:03:09 10° SE night (unlit)
08 Feb - 16:39:57 10° SSE 16:40:50 11° SE 16:41:49 10° ESE daylight
08 Feb - 18:13:33 10° SW 18:16:48 73° SSE 18:20:05 10° ENE visible
08 Feb - 19:50:29 10° WNW 19:53:29 32° NNW 19:56:30 10° NE visible
08 Feb - 21:27:37 10° NW 21:30:32 28° N 21:33:27 10° ENE night (unlit)
08 Feb - 23:04:03 10° WNW 23:07:21 75° NNE 23:10:38 10° ESE night (unlit)
09 Feb - 00:41:10 10° W 00:43:30 18° SW 00:45:47 10° S night (unlit)
09 Feb - 17:21:13 10° SW 17:24:17 40° SE 17:27:24 10° ENE daylight
09 Feb - 18:57:38 10° W 19:00:46 41° NNW 19:03:54 10° NE visible
09 Feb - 20:34:54 10° WNW 20:37:46 26° N 20:40:37 10° ENE visible
09 Feb - 22:11:30 10° NW 22:14:42 49° NNE 22:17:54 10° E night (unlit)
09 Feb - 23:48:07 10° WNW 23:51:04 31° SW 23:54:01 10° SSE night (unlit)
